| time (UTC) | temp F | wind direction | speed knots | gust knots | rain 1hr in | rain 24hr in | rain mn in | humidity % | barometer mb |
| 20260507122435 | 92 | 12 | 2.6 | 11.3 | 0.00 | 0.00 | 0.00 | 100 | 1017.3 |
| 20260507121935 | 92 | 0 | 3.5 | 10.4 | 0.00 | 0.00 | 0.00 | 100 | 1017.2 |
| 20260507121435 | 92 | 37 | 6.1 | 11.3 | 0.00 | 0.00 | 0.00 | 100 | 1017.0 |
| 20260507121204 | 92 | 326 | 3.5 | 11.3 | 0.00 | 0.00 | 0.00 | 100 | 1016.7 |
| 20260507120434 | 92 | 358 | 3.5 | 8.7 | 0.00 | 0.00 | 0.00 | 100 | 1016.7 |
| 20260507115934 | 92 | 37 | 0.0 | 9.6 | 0.00 | 0.00 | 0.00 | 100 | 1016.5 |
| 20260507115433 | 92 | 28 | 4.3 | 12.2 | 0.00 | 0.00 | 0.00 | 100 | 1016.5 |
| 20260507114931 | 92 | 30 | 2.6 | 12.2 | 0.00 | 0.00 | 0.00 | 100 | 1016.5 |
| 20260507114423 | 92 | 343 | 5.2 | 11.3 | 0.00 | 0.00 | 0.00 | 100 | 1016.4 |
| 20260507113923 | 92 | 330 | 6.1 | 12.2 | 0.00 | 0.00 | 0.00 | 100 | 1016.2 |
| 20260507113422 | 92 | 73 | 1.7 | 12.2 | 0.00 | 0.00 | 0.00 | 100 | 1016.4 |
| 20260507112923 | 92 | 327 | 5.2 | 10.4 | 0.00 | 0.00 | 0.00 | 100 | 1016.1 |
| 20260507112655 | 92 | 358 | 3.5 | 9.6 | 0.00 | 0.00 | 0.00 | 100 | 1016.0 |
| 20260507111921 | 92 | 358 | 3.5 | 9.6 | 0.00 | 0.00 | 0.00 | 100 | 1016.0 |
| 20260507111421 | 93 | 340 | 3.5 | 9.6 | 0.00 | 0.00 | 0.00 | 100 | 1016.0 |
| 20260507110922 | 93 | 358 | 4.3 | 11.3 | 0.00 | 0.00 | 0.00 | 100 | 1016.1 |
| 20260507110418 | 93 | 324 | 5.2 | 11.3 | 0.00 | 0.00 | 0.00 | 100 | 1016.2 |
| 20260507105918 | 93 | 358 | 2.6 | 10.4 | 0.00 | 0.00 | 0.00 | 100 | 1016.1 |
| 20260507105417 | 93 | 90 | 7.0 | 10.4 | 0.00 | 0.00 | 0.00 | 100 | 1016.3 |
| 20260507105143 | 93 | 15 | 4.3 | 9.6 | 0.00 | 0.00 | 0.00 | 100 | 1016.3 |
| 20260507104412 | 93 | 1 | 2.6 | 9.6 | 0.00 | 0.00 | 0.00 | 100 | 1016.3 |
| 20260507103913 | 93 | 358 | 1.7 | 10.4 | 0.00 | 0.00 | 0.00 | 100 | 1016.3 |
| 20260507103641 | 93 | 333 | 5.2 | 10.4 | 0.00 | 0.00 | 0.00 | 100 | 1016.1 |
| 20260507102911 | 93 | 26 | 2.6 | 9.6 | 0.00 | 0.00 | 0.00 | 100 | 1015.9 |
| 20260507102411 | 93 | 92 | 3.5 | 15.6 | 0.00 | 0.00 | 0.00 | 100 | 1015.6 |
| 20260507101903 | 93 | 32 | 4.3 | 15.6 | 0.00 | 0.00 | 0.00 | 100 | 1015.6 |
| 20260507101635 | 93 | 8 | 2.6 | 10.4 | 0.00 | 0.00 | 0.00 | 100 | 1015.9 |
| 20260507100903 | 93 | 358 | 6.1 | 9.6 | 0.00 | 0.00 | 0.00 | 100 | 1015.4 |
| 20260507100359 | 93 | 329 | 3.5 | 8.7 | 0.00 | 0.00 | 0.00 | 100 | 1015.7 |
| 20260507100130 | 93 | 344 | 4.3 | 8.7 | 0.00 | 0.00 | 0.00 | 100 | 1015.6 |
| 20260507095358 | 93 | 303 | 3.5 | 6.1 | 0.00 | 0.00 | 0.00 | 100 | 1015.3 |
| 20260507094903 | 93 | 336 | 1.7 | 8.7 | 0.00 | 0.00 | 0.00 | 100 | 1015.8 |
| 20260507094859 | 93 | 29 | 2.6 | 7.0 | 0.00 | 0.00 | 0.00 | 100 | 1015.6 |
| 20260507093859 | 93 | 355 | 2.6 | 8.7 | 0.00 | 0.00 | 0.00 | 100 | 1015.8 |
| 20260507093346 | 93 | 73 | 0.9 | 7.8 | 0.00 | 0.00 | 0.00 | 100 | 1015.7 |
| 20260507092844 | 93 | 36 | 3.5 | 6.1 | 0.00 | 0.00 | 0.00 | 100 | 1015.7 |
| 20260507092345 | 93 | 19 | 0.9 | 6.1 | 0.00 | 0.00 | 0.00 | 100 | 1015.6 |
| 20260507091842 | 93 | 2 | 0.0 | 4.3 | 0.00 | 0.00 | 0.00 | 100 | 1015.6 |
| 20260507091327 | 93 | 16 | 0.9 | 7.0 | 0.00 | 0.00 | 0.00 | 100 | 1015.7 |
| 20260507090822 | 93 | 29 | 0.9 | 8.7 | 0.00 | 0.00 | 0.00 | 100 | 1015.7 |
| 20260507090314 | 93 | 5 | 4.3 | 8.7 | 0.00 | 0.00 | 0.00 | 100 | 1015.3 |
| 20260507085814 | 93 | 4 | 0.9 | 5.2 | 0.00 | 0.00 | 0.00 | 100 | 1015.1 |
| 20260507085312 | 94 | 331 | 0.0 | 8.7 | 0.00 | 0.00 | 0.00 | 100 | 1015.1 |
| 20260507084812 | 93 | 316 | 5.2 | 8.7 | 0.00 | 0.00 | 0.00 | 100 | 1014.9 |
| 20260507084303 | 94 | 1 | 1.7 | 8.7 | 0.00 | 0.00 | 0.00 | 100 | 1014.8 |
| 20260507083804 | 94 | 303 | 3.5 | 7.0 | 0.00 | 0.00 | 0.00 | 100 | 1014.8 |
| 20260507083300 | 94 | 337 | 3.5 | 6.1 | 0.00 | 0.00 | 0.00 | 100 | 1015.0 |
| 20260507082801 | 94 | 7 | 0.0 | 8.7 | 0.00 | 0.00 | 0.00 | 100 | 1014.9 |
| 20260507082256 | 94 | 358 | 1.7 | 8.7 | 0.00 | 0.00 | 0.00 | 100 | 1014.7 |
| 20260507081749 | 94 | 327 | 3.5 | 7.0 | 0.00 | 0.00 | 0.00 | 100 | 1014.9 |
| 20260507081519 | 94 | 88 | 2.6 | 6.1 | 0.00 | 0.00 | 0.00 | 100 | 1014.6 |
| 20260507080748 | 94 | 23 | 3.5 | 6.1 | 0.00 | 0.00 | 0.00 | 100 | 1014.8 |
| 20260507080518 | 94 | 45 | 0.0 | 4.3 | 0.00 | 0.00 | 0.00 | 100 | 1014.6 |
| 20260507075744 | 94 | 350 | 0.0 | 7.8 | 0.00 | 0.00 | 0.00 | 100 | 1014.8 |
| 20260507075504 | 94 | 326 | 0.9 | 7.8 | 0.00 | 0.00 | 0.00 | 100 | 1014.3 |
| 20260507074733 | 94 | 147 | 0.9 | 8.7 | 0.00 | 0.00 | 0.00 | 100 | 1014.3 |
| 20260507074233 | 94 | 358 | 0.0 | 9.6 | 0.00 | 0.00 | 0.00 | 100 | 1014.3 |
| 20260507073731 | 94 | 358 | 1.7 | 9.6 | 0.00 | 0.00 | 0.00 | 100 | 1014.6 |
| 20260507073231 | 94 | 71 | 1.7 | 7.8 | 0.00 | 0.00 | 0.00 | 100 | 1014.7 |
| 20260507073006 | 94 | 63 | 2.6 | 7.8 | 0.00 | 0.00 | 0.00 | 100 | 1014.5 |
| 20260507072503 | 95 | 54 | 1.7 | 7.8 | 0.00 | 0.00 | 0.00 | 100 | 1014.6 |
| 20260507071728 | 95 | 40 | 0.0 | 7.8 | 0.00 | 0.00 | 0.00 | 100 | 1014.2 |
| 20260507071231 | 95 | 350 | 1.7 | 8.7 | 0.00 | 0.00 | 0.00 | 100 | 1014.4 |
| 20260507071226 | 95 | 74 | 4.3 | 7.8 | 0.00 | 0.00 | 0.00 | 100 | 1014.2 |
| 20260507070227 | 95 | 338 | 4.3 | 8.7 | 0.00 | 0.00 | 0.00 | 100 | 1014.5 |
| 20260507065725 | 95 | 26 | 4.3 | 7.8 | 0.00 | 0.00 | 0.00 | 100 | 1014.6 |
| 20260507065224 | 95 | 87 | 1.7 | 7.8 | 0.00 | 0.00 | 0.00 | 100 | 1014.4 |
| 20260507064955 | 95 | 56 | 1.7 | 7.0 | 0.00 | 0.00 | 0.00 | 100 | 1014.5 |
| 20260507064830 | 95 | 357 | 0.9 | 9.6 | 0.00 | 0.00 | 0.00 | 100 | 1014.4 |
| 20260507063720 | 95 | 35 | 0.9 | 9.6 | 0.00 | 0.00 | 0.00 | 100 | 1014.4 |
| 20260507063212 | 95 | 70 | 5.2 | 8.7 | 0.00 | 0.00 | 0.00 | 100 | 1014.3 |
| 20260507062658 | 95 | 16 | 4.3 | 8.7 | 0.00 | 0.00 | 0.00 | 100 | 1014.1 |
| 20260507062158 | 95 | 111 | 2.6 | 8.7 | 0.00 | 0.00 | 0.00 | 100 | 1014.4 |
| 20260507061658 | 95 | 47 | 4.3 | 8.7 | 0.00 | 0.00 | 0.00 | 100 | 1014.6 |
| 20260507061158 | 95 | 23 | 5.2 | 10.4 | 0.00 | 0.00 | 0.00 | 100 | 1014.6 |
| 20260507060658 | 95 | 330 | 2.6 | 10.4 | 0.00 | 0.00 | 0.00 | 100 | 1014.2 |
| 20260507060429 | 95 | 63 | 4.3 | 7.8 | 0.00 | 0.00 | 0.00 | 100 | 1014.3 |
| 20260507055658 | 95 | 60 | 0.9 | 7.0 | 0.00 | 0.00 | 0.00 | 100 | 1014.6 |
| 20260507055158 | 95 | 18 | 3.5 | 7.0 | 0.00 | 0.00 | 0.00 | 100 | 1014.8 |
| 20260507054654 | 95 | 14 | 0.0 | 7.8 | 0.00 | 0.00 | 0.00 | 100 | 1014.7 |
| 20260507054149 | 95 | 11 | 3.5 | 7.8 | 0.00 | 0.00 | 0.00 | 100 | 1014.4 |
| 20260507053646 | 95 | 32 | 0.0 | 8.7 | 0.00 | 0.00 | 0.00 | 100 | 1014.3 |
| 20260507053146 | 95 | 43 | 2.6 | 9.6 | 0.00 | 0.00 | 0.00 | 100 | 1014.4 |
| 20260507052646 | 95 | 319 | 3.5 | 9.6 | 0.00 | 0.00 | 0.00 | 100 | 1014.3 |
| 20260507052416 | 95 | 8 | 3.5 | 8.7 | 0.00 | 0.00 | 0.00 | 100 | 1014.3 |
| 20260507052251 | 95 | 358 | 4.3 | 8.7 | 0.00 | 0.00 | 0.00 | 100 | 1014.3 |
| 20260507051144 | 95 | 74 | 1.7 | 8.7 | 0.00 | 0.00 | 0.00 | 100 | 1014.4 |
| 20260507050644 | 95 | 77 | 6.1 | 8.7 | 0.00 | 0.00 | 0.00 | 100 | 1014.2 |
| 20260507050144 | 95 | 358 | 4.3 | 9.6 | 0.00 | 0.00 | 0.00 | 100 | 1014.2 |
| 20260507045644 | 95 | 19 | 3.5 | 9.6 | 0.00 | 0.00 | 0.00 | 100 | 1014.5 |
| 20260507045145 | 95 | 358 | 4.3 | 7.8 | 0.00 | 0.00 | 0.00 | 100 | 1014.4 |
| 20260507044644 | 95 | 52 | 4.3 | 7.0 | 0.00 | 0.00 | 0.00 | 100 | 1014.3 |
| 20260507044144 | 95 | 106 | 1.7 | 7.0 | 0.00 | 0.00 | 0.00 | 100 | 1014.5 |
| 20260507043642 | 95 | 357 | 0.9 | 8.7 | 0.00 | 0.00 | 0.00 | 100 | 1014.6 |
| 20260507043141 | 95 | 68 | 5.2 | 8.7 | 0.00 | 0.00 | 0.00 | 100 | 1014.4 |
| 20260507042640 | 95 | 47 | 3.5 | 8.7 | 0.00 | 0.00 | 0.00 | 100 | 1014.5 |
| 20260507042141 | 95 | 337 | 4.3 | 9.6 | 0.00 | 0.00 | 0.00 | 100 | 1014.4 |
| 20260507041640 | 95 | 358 | 4.3 | 9.6 | 0.00 | 0.00 | 0.00 | 100 | 1014.2 |
| 20260507041140 | 95 | 5 | 0.0 | 7.8 | 0.00 | 0.00 | 0.00 | 100 | 1014.2 |
| 20260507040910 | 95 | 35 | 2.6 | 7.8 | 0.00 | 0.00 | 0.00 | 100 | 1014.5 |
| 20260507040138 | 95 | 11 | 3.5 | 7.8 | 0.00 | 0.00 | 0.00 | 100 | 1014.5 |
| 20260507035637 | 95 | 358 | 3.5 | 9.6 | 0.00 | 0.00 | 0.00 | 100 | 1014.5 |
| 20260507035123 | 95 | 29 | 2.6 | 9.6 | 0.00 | 0.00 | 0.00 | 100 | 1014.4 |
| 20260507034621 | 95 | 258 | 5.2 | 8.7 | 0.00 | 0.00 | 0.00 | 100 | 1014.3 |
| 20260507034351 | 95 | 42 | 0.9 | 8.7 | 0.00 | 0.00 | 0.00 | 100 | 1014.4 |
| 20260507033620 | 95 | 333 | 1.7 | 8.7 | 0.00 | 0.00 | 0.00 | 100 | 1014.3 |
| 20260507033120 | 95 | 337 | 4.3 | 7.0 | 0.00 | 0.00 | 0.00 | 100 | 1014.4 |
| 20260507032620 | 95 | 358 | 3.5 | 7.8 | 0.00 | 0.00 | 0.00 | 100 | 1013.9 |
| 20260507032118 | 95 | 2 | 0.9 | 7.8 | 0.00 | 0.00 | 0.00 | 100 | 1014.2 |
| 20260507031615 | 95 | 49 | 3.5 | 7.0 | 0.00 | 0.00 | 0.00 | 100 | 1014.1 |
| 20260507031116 | 95 | 358 | 0.0 | 11.3 | 0.00 | 0.00 | 0.00 | 100 | 1014.2 |
| 20260507030616 | 95 | 357 | 2.6 | 11.3 | 0.00 | 0.00 | 0.00 | 100 | 1014.2 |
| 20260507030113 | 95 | 351 | 4.3 | 10.4 | 0.00 | 0.00 | 0.00 | 100 | 1013.9 |
| 20260507025612 | 95 | 337 | 3.5 | 10.4 | 0.00 | 0.00 | 0.00 | 100 | 1013.8 |
| 20260507025112 | 95 | 270 | 4.3 | 10.4 | 0.00 | 0.00 | 0.00 | 100 | 1013.9 |
| 20260507024612 | 95 | 344 | 5.2 | 8.7 | 0.00 | 0.00 | 0.00 | 100 | 1013.6 |
| 20260507024343 | 95 | 340 | 3.5 | 8.7 | 0.00 | 0.00 | 0.00 | 100 | 1013.9 |
| 20260507023612 | 95 | 1 | 1.7 | 8.7 | 0.00 | 0.00 | 0.00 | 100 | 1013.9 |
| 20260507023109 | 95 | 313 | 6.1 | 8.7 | 0.00 | 0.00 | 0.00 | 100 | 1013.6 |
| 20260507022609 | 95 | 343 | 3.5 | 7.8 | 0.00 | 0.00 | 0.00 | 100 | 1013.5 |
| 20260507022108 | 95 | 336 | 3.5 | 7.8 | 0.00 | 0.00 | 0.00 | 100 | 1013.6 |
| 20260507021609 | 96 | 14 | 0.0 | 7.8 | 0.00 | 0.00 | 0.00 | 100 | 1013.4 |
| 20260507021337 | 96 | 324 | 6.1 | 8.7 | 0.00 | 0.00 | 0.00 | 100 | 1013.3 |
| 20260507020601 | 96 | 345 | 5.2 | 8.7 | 0.00 | 0.00 | 0.00 | 100 | 1013.2 |
| 20260507015601 | 96 | 37 | 5.2 | 10.4 | 0.00 | 0.00 | 0.00 | 100 | 1013.2 |
| 20260507015101 | 96 | 326 | 5.2 | 8.7 | 0.00 | 0.00 | 0.00 | 100 | 1013.0 |
| 20260507014601 | 96 | 347 | 3.5 | 7.0 | 0.00 | 0.00 | 0.00 | 100 | 1012.9 |
| 20260507014101 | 96 | 18 | 0.9 | 7.0 | 0.00 | 0.00 | 0.00 | 100 | 1012.9 |
| 20260507013545 | 96 | 358 | 1.7 | 7.0 | 0.00 | 0.00 | 0.00 | 100 | 1012.9 |
| 20260507013043 | 96 | 4 | 3.5 | 8.7 | 0.00 | 0.00 | 0.00 | 100 | 1012.6 |
| 20260507012543 | 96 | 30 | 0.0 | 8.7 | 0.00 | 0.00 | 0.00 | 100 | 1012.4 |
| 20260507011548 | 96 | 358 | 2.6 | 7.0 | 0.00 | 0.00 | 0.00 | 100 | 1012.3 |
| 20260507011543 | 96 | 333 | 4.3 | 8.7 | 0.00 | 0.00 | 0.00 | 100 | 1012.3 |
| 20260507010544 | 96 | 358 | 0.0 | 5.2 | 0.00 | 0.00 | 0.00 | 100 | 1012.2 |
| 20260507010045 | 96 | 78 | 2.6 | 7.8 | 0.00 | 0.00 | 0.00 | 100 | 1012.5 |
| 20260507005544 | 96 | 61 | 3.5 | 10.4 | 0.00 | 0.00 | 0.00 | 100 | 1012.4 |
| 20260507005044 | 96 | 317 | 5.2 | 10.4 | 0.00 | 0.00 | 0.00 | 100 | 1012.2 |
| 20260507004544 | 96 | 322 | 6.1 | 9.6 | 0.00 | 0.00 | 0.00 | 100 | 1012.3 |
| 20260507004044 | 96 | 25 | 1.7 | 8.7 | 0.00 | 0.00 | 0.00 | 100 | 1011.9 |
| 20260507003529 | 96 | 26 | 2.6 | 9.6 | 0.00 | 0.00 | 0.00 | 100 | 1011.9 |
| 20260507003258 | 96 | 340 | 0.0 | 9.6 | 0.00 | 0.00 | 0.00 | 100 | 1012.0 |
| 20260507002524 | 96 | 26 | 3.5 | 10.4 | 0.00 | 0.00 | 0.00 | 100 | 1011.8 |
| 20260507002021 | 96 | 94 | 4.3 | 10.4 | 0.00 | 0.00 | 0.00 | 100 | 1011.7 |
| 20260507001522 | 96 | 293 | 1.7 | 7.8 | 0.00 | 0.00 | 0.00 | 100 | 1011.9 |
| 20260507001014 | 96 | 12 | 3.5 | 9.6 | 0.00 | 0.00 | 0.00 | 100 | 1011.9 |
| 20260507000514 | 96 | 15 | 4.3 | 9.6 | 0.00 | 0.00 | 0.00 | 100 | 1011.8 |
| 20260507000012 | 96 | 37 | 4.3 | 7.8 | 0.00 | 0.00 | 0.00 | 100 | 1012.0 |
| 20260506235511 | 96 | 40 | 3.5 | 7.8 | 0.00 | 0.00 | 0.00 | 100 | 1011.7 |
| 20260506235011 | 96 | 331 | 3.5 | 11.3 | 0.00 | 0.00 | 0.00 | 100 | 1011.7 |
| 20260506234009 | 96 | 8 | 5.2 | 11.3 | 0.00 | 0.00 | 0.00 | 100 | 1011.9 |
| 20260506233508 | 96 | 354 | 3.5 | 11.3 | 0.00 | 0.00 | 0.00 | 100 | 1011.7 |
| 20260506233007 | 96 | 296 | 1.7 | 8.7 | 0.00 | 0.00 | 0.00 | 100 | 1011.6 |
| 20260506232501 | 96 | 19 | 2.6 | 9.6 | 0.00 | 0.00 | 0.00 | 100 | 1011.6 |
| 20260506232001 | 96 | 5 | 2.6 | 10.4 | 0.00 | 0.00 | 0.00 | 100 | 1011.6 |
| 20260506231459 | 96 | 23 | 5.2 | 11.3 | 0.00 | 0.00 | 0.00 | 100 | 1011.6 |
| 20260506231231 | 96 | 261 | 5.2 | 11.3 | 0.00 | 0.00 | 0.00 | 100 | 1011.6 |
| 20260506230459 | 96 | 281 | 4.3 | 9.6 | 0.00 | 0.00 | 0.00 | 100 | 1011.6 |
| 20260506225959 | 96 | 331 | 4.3 | 10.4 | 0.00 | 0.00 | 0.00 | 100 | 1011.6 |
| 20260506225459 | 96 | 358 | 5.2 | 10.4 | 0.00 | 0.00 | 0.00 | 100 | 1011.6 |
| 20260506225230 | 96 | 14 | 5.2 | 8.7 | 0.00 | 0.00 | 0.00 | 100 | 1011.6 |
| 20260506224730 | 96 | 37 | 3.5 | 8.7 | 0.00 | 0.00 | 0.00 | 100 | 1011.5 |
| 20260506223959 | 96 | 1 | 5.2 | 12.2 | 0.00 | 0.00 | 0.00 | 100 | 1011.6 |
| 20260506223459 | 96 | 15 | 7.0 | 12.2 | 0.00 | 0.00 | 0.00 | 100 | 1011.6 |
| 20260506223230 | 96 | 357 | 2.6 | 12.2 | 0.00 | 0.00 | 0.00 | 100 | 1011.6 |
| 20260506222459 | 96 | 16 | 4.3 | 9.6 | 0.00 | 0.00 | 0.00 | 100 | 1011.5 |
| 20260506221959 | 96 | 29 | 4.3 | 11.3 | 0.00 | 0.00 | 0.00 | 100 | 1011.5 |
| 20260506221459 | 96 | 25 | 5.2 | 11.3 | 0.00 | 0.00 | 0.00 | 100 | 1011.5 |
| 20260506220959 | 96 | 340 | 4.3 | 11.3 | 0.00 | 0.00 | 0.00 | 100 | 1011.5 |
| 20260506220458 | 96 | 1 | 5.2 | 11.3 | 0.00 | 0.00 | 0.00 | 100 | 1011.6 |
| 20260506215958 | 96 | 310 | 1.7 | 9.6 | 0.00 | 0.00 | 0.00 | 100 | 1011.8 |
| 20260506215459 | 96 | 340 | 5.2 | 10.4 | 0.00 | 0.00 | 0.00 | 100 | 1011.5 |
| 20260506214959 | 96 | 25 | 6.1 | 12.2 | 0.00 | 0.00 | 0.00 | 100 | 1011.4 |
| 20260506214453 | 96 | 322 | 5.2 | 12.2 | 0.00 | 0.00 | 0.00 | 100 | 1011.3 |
| 20260506213953 | 97 | 11 | 4.3 | 13.9 | 0.00 | 0.00 | 0.00 | 100 | 1011.4 |
| 20260506213453 | 96 | 358 | 6.1 | 13.9 | 0.00 | 0.00 | 0.00 | 100 | 1011.3 |
| 20260506212952 | 96 | 30 | 4.3 | 11.3 | 0.00 | 0.00 | 0.00 | 100 | 1011.3 |
| 20260506212452 | 97 | 33 | 6.1 | 11.3 | 0.00 | 0.00 | 0.00 | 100 | 1011.3 |
| 20260506211952 | 96 | 2 | 7.0 | 11.3 | 0.00 | 0.00 | 0.00 | 100 | 1011.4 |
| 20260506211452 | 97 | 358 | 3.5 | 12.2 | 0.00 | 0.00 | 0.00 | 100 | 1011.4 |
| 20260506210953 | 97 | 40 | 5.2 | 12.2 | 0.00 | 0.00 | 0.00 | 100 | 1011.5 |
| 20260506210452 | 97 | 7 | 6.1 | 15.6 | 0.00 | 0.00 | 0.00 | 100 | 1011.5 |
| 20260506205953 | 98 | 319 | 7.8 | 15.6 | 0.00 | 0.00 | 0.00 | 100 | 1011.6 |
| 20260506205453 | 97 | 329 | 5.2 | 12.2 | 0.00 | 0.00 | 0.00 | 100 | 1011.8 |
| 20260506205225 | 97 | 5 | 6.1 | 12.2 | 0.00 | 0.00 | 0.00 | 100 | 1011.6 |
| 20260506204452 | 97 | 298 | 7.8 | 13.0 | 0.00 | 0.00 | 0.00 | 100 | 1011.7 |
| 20260506203953 | 98 | 310 | 5.2 | 13.0 | 0.00 | 0.00 | 0.00 | 100 | 1011.8 |
| 20260506203724 | 98 | 21 | 4.3 | 10.4 | 0.00 | 0.00 | 0.00 | 100 | 1011.8 |
| 20260506202953 | 98 | 358 | 4.3 | 9.6 | 0.00 | 0.00 | 0.00 | 100 | 1011.7 |
| 20260506202452 | 99 | 358 | 3.5 | 10.4 | 0.00 | 0.00 | 0.00 | 100 | 1011.6 |
| 20260506201952 | 99 | 40 | 5.2 | 12.2 | 0.00 | 0.00 | 0.00 | 100 | 1011.5 |
| 20260506201452 | 99 | 344 | 5.2 | 13.0 | 0.00 | 0.00 | 0.00 | 100 | 1011.6 |
| 20260506200953 | 99 | 358 | 7.0 | 13.0 | 0.00 | 0.00 | 0.00 | 100 | 1011.5 |
| 20260506200453 | 100 | 355 | 6.1 | 12.2 | 0.00 | 0.00 | 0.00 | 100 | 1011.5 |
| 20260506195953 | 100 | 67 | 5.2 | 15.6 | 0.00 | 0.00 | 0.00 | 100 | 1011.3 |
| 20260506195451 | 99 | 345 | 6.1 | 15.6 | 0.00 | 0.00 | 0.00 | 100 | 1011.4 |
| 20260506194950 | 99 | 29 | 3.5 | 13.9 | 0.00 | 0.00 | 0.00 | 100 | 1011.2 |
| 20260506194450 | 99 | 352 | 6.1 | 13.9 | 0.00 | 0.00 | 0.00 | 100 | 1011.2 |
| 20260506194221 | 99 | 42 | 6.1 | 13.0 | 0.00 | 0.00 | 0.00 | 100 | 1011.1 |
| 20260506193449 | 99 | 2 | 7.0 | 13.9 | 0.00 | 0.00 | 0.00 | 100 | 1011.0 |
| 20260506193221 | 99 | 37 | 8.7 | 13.9 | 0.00 | 0.00 | 0.00 | 100 | 1011.1 |
| 20260506192450 | 100 | 344 | 3.5 | 13.0 | 0.00 | 0.00 | 0.00 | 100 | 1011.1 |
| 20260506192221 | 99 | 358 | 5.2 | 13.0 | 0.00 | 0.00 | 0.00 | 100 | 1011.2 |
| 20260506191451 | 99 | 22 | 7.0 | 13.0 | 0.00 | 0.00 | 0.00 | 100 | 1011.2 |
| 20260506190950 | 100 | 358 | 7.8 | 13.0 | 0.00 | 0.00 | 0.00 | 100 | 1011.2 |
| 20260506190450 | 101 | 16 | 0.9 | 7.0 | 0.00 | 0.00 | 0.00 | 100 | 1011.2 |
| 20260506185948 | 101 | 11 | 3.5 | 7.0 | 0.00 | 0.00 | 0.00 | 100 | 1011.4 |
| 20260506185448 | 101 | 303 | 0.0 | 7.8 | 0.00 | 0.00 | 0.00 | 100 | 1011.3 |
| 20260506184947 | 101 | 16 | 4.3 | 8.7 | 0.00 | 0.00 | 0.00 | 100 | 1011.2 |
| 20260506184444 | 102 | 338 | 3.5 | 8.7 | 0.00 | 0.00 | 0.00 | 100 | 1011.2 |
| 20260506183943 | 102 | 262 | 3.5 | 7.0 | 0.00 | 0.00 | 0.00 | 100 | 1011.1 |
| 20260506183443 | 101 | 345 | 4.3 | 7.0 | 0.00 | 0.00 | 0.00 | 100 | 1011.1 |
| 20260506183214 | 102 | 2 | 0.0 | 7.0 | 0.00 | 0.00 | 0.00 | 100 | 1011.0 |
| 20260506182443 | 103 | 70 | 4.3 | 7.0 | 0.00 | 0.00 | 0.00 | 100 | 1011.0 |
| 20260506182214 | 102 | 358 | 5.2 | 7.0 | 0.00 | 0.00 | 0.00 | 100 | 1011.0 |
| 20260506181442 | 102 | 317 | 4.3 | 7.0 | 0.00 | 0.00 | 0.00 | 100 | 1011.1 |
| 20260506180949 | 102 | 7 | 2.6 | 5.2 | 0.00 | 0.00 | 0.00 | 100 | 1011.1 |
| 20260506180943 | 102 | 1 | 1.7 | 7.0 | 0.00 | 0.00 | 0.00 | 100 | 1011.1 |
| 20260506175943 | 102 | 326 | 0.9 | 7.0 | 0.00 | 0.00 | 0.00 | 100 | 1010.9 |
| 20260506175443 | 101 | 5 | 2.6 | 7.0 | 0.00 | 0.00 | 0.00 | 100 | 1010.8 |
| 20260506174943 | 101 | 32 | 1.7 | 5.2 | 0.00 | 0.00 | 0.00 | 100 | 1010.8 |
| 20260506174443 | 101 | 315 | 0.0 | 6.1 | 0.00 | 0.00 | 0.00 | 100 | 1010.8 |
| 20260506173944 | 101 | 67 | 0.0 | 7.0 | 0.00 | 0.00 | 0.00 | 100 | 1010.7 |
| 20260506173443 | 101 | 46 | 1.7 | 7.8 | 0.00 | 0.00 | 0.00 | 100 | 1010.7 |
| 20260506172943 | 100 | 149 | 2.6 | 7.8 | 0.00 | 0.00 | 0.00 | 100 | 1010.7 |
| 20260506172444 | 100 | 326 | 3.5 | 7.8 | 0.00 | 0.00 | 0.00 | 100 | 1010.8 |
| 20260506171945 | 100 | 36 | 1.7 | 7.8 | 0.00 | 0.00 | 0.00 | 100 | 1010.9 |
| 20260506171445 | 99 | 0 | 0.9 | 8.7 | 0.00 | 0.00 | 0.00 | 100 | 1010.9 |
| 20260506171216 | 99 | 358 | 0.9 | 8.7 | 0.00 | 0.00 | 0.00 | 100 | 1010.8 |
| 20260506170442 | 98 | 358 | 5.2 | 11.3 | 0.00 | 0.00 | 0.00 | 100 | 1010.9 |
| 20260506170212 | 98 | 40 | 3.5 | 11.3 | 0.00 | 0.00 | 0.00 | 100 | 1010.8 |
| 20260506165712 | 98 | 49 | 0.0 | 8.7 | 0.00 | 0.00 | 0.00 | 100 | 1010.9 |
| 20260506164939 | 98 | 35 | 2.6 | 9.6 | 0.00 | 0.00 | 0.00 | 100 | 1010.9 |
| 20260506164439 | 97 | 45 | 3.5 | 9.6 | 0.00 | 0.00 | 0.00 | 100 | 1011.1 |
| 20260506163939 | 96 | 82 | 0.9 | 11.3 | 0.00 | 0.00 | 0.00 | 100 | 1011.6 |
| 20260506163438 | 96 | 70 | 3.5 | 11.3 | 0.00 | 0.00 | 0.00 | 100 | 1011.6 |
| 20260506162931 | 97 | 52 | 3.5 | 8.7 | 0.00 | 0.00 | 0.00 | 100 | 1011.6 |
| 20260506162702 | 97 | 358 | 4.3 | 10.4 | 0.00 | 0.00 | 0.00 | 100 | 1011.5 |
| 20260506161925 | 95 | 326 | 6.1 | 12.2 | 0.00 | 0.00 | 0.00 | 100 | 1011.6 |
| 20260506161425 | 95 | 343 | 5.2 | 13.0 | 0.00 | 0.00 | 0.00 | 100 | 1011.8 |
| 20260506161151 | 95 | 357 | 3.5 | 13.0 | 0.00 | 0.00 | 0.00 | 100 | 1012.5 |
| 20260506160651 | 95 | 4 | 4.3 | 14.8 | 0.00 | 0.00 | 0.00 | 100 | 1012.4 |
| 20260506155921 | 95 | 317 | 7.8 | 14.8 | 0.00 | 0.00 | 0.00 | 100 | 1012.3 |
| 20260506155421 | 95 | 1 | 7.0 | 12.2 | 0.00 | 0.00 | 0.00 | 100 | 1012.1 |
| 20260506154921 | 95 | 340 | 0.9 | 13.0 | 0.00 | 0.00 | 0.00 | 100 | 1012.2 |
| 20260506154418 | 96 | 43 | 5.2 | 13.0 | 0.00 | 0.00 | 0.00 | 100 | 1012.1 |
| 20260506153917 | 96 | 49 | 4.3 | 14.8 | 0.00 | 0.00 | 0.00 | 100 | 1011.9 |
| 20260506153414 | 96 | 358 | 6.1 | 15.6 | 0.00 | 0.00 | 0.00 | 100 | 1011.9 |
| 20260506152913 | 96 | 1 | 7.8 | 15.6 | 0.00 | 0.00 | 0.00 | 100 | 1011.7 |
| 20260506152643 | 97 | 340 | 5.2 | 12.2 | 0.00 | 0.00 | 0.00 | 100 | 1011.7 |
| 20260506151912 | 97 | 18 | 5.2 | 12.2 | 0.00 | 0.00 | 0.00 | 100 | 1011.4 |
| 20260506151413 | 97 | 329 | 6.1 | 20.9 | 0.00 | 0.00 | 0.00 | 100 | 1011.1 |
| 20260506150913 | 98 | 348 | 7.8 | 20.9 | 0.00 | 0.00 | 0.00 | 100 | 1011.2 |
| 20260506150643 | 99 | 340 | 8.7 | 13.0 | 0.00 | 0.00 | 0.00 | 100 | 1011.1 |
| 20260506145914 | 101 | 154 | 0.0 | 0.0 | 0.00 | 0.00 | 0.00 | 100 | 1010.7 |
| 20260506145412 | 101 | 154 | 0.0 | 3.5 | 0.00 | 0.00 | 0.00 | 100 | 1010.4 |
| 20260506144911 | 101 | 154 | 0.0 | 5.2 | 0.00 | 0.00 | 0.00 | 100 | 1010.2 |
| 20260506144411 | 101 | 146 | 0.0 | 5.2 | 0.00 | 0.00 | 0.00 | 100 | 1009.7 |
| 20260506143901 | 101 | 75 | 0.9 | 6.1 | 0.00 | 0.00 | 0.00 | 100 | 1009.5 |
| 20260506143401 | 101 | 130 | 1.7 | 6.1 | 0.00 | 0.00 | 0.00 | 100 | 1009.5 |
| 20260506142905 | 101 | 109 | 0.0 | 6.1 | 0.00 | 0.00 | 0.00 | 100 | 1009.3 |
| 20260506142901 | 101 | 109 | 0.0 | 5.2 | 0.00 | 0.00 | 0.00 | 100 | 1009.4 |
| 20260506142355 | 102 | 151 | 0.0 | 6.1 | 0.00 | 0.00 | 0.00 | 100 | 1009.1 |
| 20260506141346 | 102 | 151 | 0.0 | 5.2 | 0.00 | 0.00 | 0.00 | 100 | 1009.0 |
| 20260506141108 | 101 | 168 | 1.7 | 5.2 | 0.00 | 0.00 | 0.00 | 100 | 1009.1 |
| 20260506140338 | 101 | 149 | 0.0 | 3.5 | 0.00 | 0.00 | 0.00 | 100 | 1009.3 |
| 20260506135829 | 100 | 149 | 0.0 | 3.5 | 0.00 | 0.00 | 0.00 | 100 | 1009.5 |
| 20260506135325 | 101 | 123 | 0.0 | 0.0 | 0.00 | 0.00 | 0.00 | 100 | 1009.6 |
| 20260506134819 | 100 | 123 | 0.0 | 0.0 | 0.00 | 0.00 | 0.00 | 100 | 1009.3 |
| 20260506134545 | 100 | 123 | 0.0 | 3.5 | 0.00 | 0.00 | 0.00 | 100 | 1009.0 |
| 20260506133814 | 100 | 123 | 0.0 | 3.5 | 0.00 | 0.00 | 0.00 | 100 | 1009.0 |
| 20260506133258 | 100 | 150 | 0.0 | 0.0 | 0.00 | 0.00 | 0.00 | 2 | 1009.1 |
| 20260506132747 | 100 | 150 | 0.0 | 4.3 | 0.00 | 0.00 | 0.00 | 2 | 1009.0 |
| 20260506132245 | 100 | 150 | 0.0 | 4.3 | 0.00 | 0.00 | 0.00 | 3 | 1008.9 |
| 20260506131744 | 100 | 105 | 0.0 | 4.3 | 0.00 | 0.00 | 0.00 | 4 | 1009.0 |
| 20260506131243 | 100 | 160 | 0.9 | 4.3 | 0.00 | 0.00 | 0.00 | 4 | 1008.8 |
| 20260506130740 | 100 | 115 | 0.9 | 4.3 | 0.00 | 0.00 | 0.00 | 4 | 1008.8 |
| 20260506130233 | 100 | 133 | 0.9 | 5.2 | 0.00 | 0.00 | 0.00 | 5 | 1008.8 |
| 20260506125727 | 100 | 98 | 1.7 | 3.5 | 0.00 | 0.00 | 0.00 | 6 | 1008.8 |
| 20260506125213 | 100 | 136 | 0.0 | 0.0 | 0.00 | 0.00 | 0.00 | 7 | 1008.7 |
| 20260506124939 | 100 | 136 | 0.0 | 2.6 | 0.00 | 0.00 | 0.00 | 10 | 1008.6 |
| 20260506124202 | 100 | 136 | 0.0 | 2.6 | 0.00 | 0.00 | 0.00 | 15 | 1008.5 |
| 20260506123658 | 100 | 185 | 0.0 | 0.0 | 0.00 | 0.00 | 0.00 | 22 | 1008.5 |
| 20260506123157 | 100 | 185 | 0.0 | 0.0 | 0.00 | 0.00 | 0.00 | 23 | 1008.5 |